User: anonymous
Location: Tyler Bend Campground
(35.9875°N, 92.7606°W)
Time: 12:53:28
(UTC-05:00)
Language:

Iridium 39 - Orbit

View from above orbital plane
View from above orbital plane
View from above satellite
View from above satellite

Ground track
Ground track

The orbit data is extracted from the following two-line orbital elements,

1 25042U 97069D   14273.42901427  .00000303  00000-0  10122-3 0  9939
2 25042 086.3928 076.2903 0002234 111.9662 248.1771 14.34221659884305
Epoch (UTC): 30 September 2014 10:17:46
Eccentricity: 0.0002234
inclination: 86.3928°
perigee height: 776 km
apogee height: 779 km
right ascension of ascending node: 76.2903°
argument of perigee: 111.9662°
revolutions per day: 14.34221659
mean anomaly at epoch: 248.1771°
orbit number at epoch: 88430

The dashed part of the orbit path shows where the satellite is in the earth's shadow,  

DLR